Preview of NWS' New Version of Forecast
This preview is not operational and should not be used for support decisions.

Regional Weather Roundup (RWR)

Issued by National Weather Service (NWS)

                            
000
ASUS46 KPQR 181110
RWROR 

OREGON REGIONAL WEATHER ROUNDUP
NATIONAL WEATHER SERVICE PORTLAND OR
400 AM PDT SUN AUG 18 2019

NOTE: "FAIR" INDICATES FEW OR NO CLOUDS BELOW 12,000 FEET WITH
NO SIGNIFICANT WEATHER AND/OR OBSTRUCTIONS TO VISIBILITY.

ORZ001>013-181200-
NORTHWEST OREGON

  
CITY           SKY/WX    TMP DP  RH WIND       PRES   REMARKS
ASTORIA        CLOUDY    61  57  87 CALM      29.90F                  
TILLAMOOK      CLOUDY    57  54  88 CALM      29.92F                  
NEWPORT        CLEAR     52  50  93 CALM        N/A                   
PORTLAND       MOCLDY    60  53  77 NW5       29.89F                  
VANCOUVER WA   CLEAR     59  53  80 CALM      29.89F                  
SCAPPOOSE      CLOUDY    53  51  93 CALM      29.88F                  
HILLSBORO      CLOUDY    56  52  86 CALM      29.89F                  
AURORA         PTCLDY    57  52  83 NE3       29.90F                  
MCMINNVILLE    CLOUDY    58  53  84 CALM      29.89S                  
SALEM          CLOUDY    60  53  77 N7        29.89S                  
CORVALLIS      CLEAR     56  54  93 NW5       29.89F                  
EUGENE         CLEAR     54  50  86 NW6       29.88F                  
$$

ORZ021-028-181200-
SOUTHWEST OREGON

  
CITY           SKY/WX    TMP DP  RH WIND       PRES   REMARKS
NORTH BEND     CLEAR     55  54  96 N3        29.89F                  
BROOKINGS      CLOUDY    55  54  96 CALM      29.83S FOG              
ROSEBURG       CLEAR     62  52  69 CALM      29.86F                  
SEXTON SUMMIT  CLEAR     61  44  53 CALM      29.91F                  
GRANTS PASS    FAIR      57  48  72 CALM      29.87S                  
MEDFORD        CLEAR     60  47  61 CALM      29.84S                  
$$

ORZ014>016-041-181200-
COLUMBIA GORGE

  
CITY           SKY/WX    TMP DP  RH WIND       PRES   REMARKS
TROUTDALE      PTCLDY    56  53  90 E3        29.89F                  
HOOD RIVER     CLEAR     54  50  87 CALM      29.84F                  
THE DALLES     CLEAR     58  48  69 SW8       29.81S                  
$$

ORZ029>031-041-044-049-050-061>064-502-503-505>511-181200-
EASTERN OREGON

  
CITY           SKY/WX    TMP DP  RH WIND       PRES   REMARKS
MADRAS         CLEAR     46  43  87 SE3       29.90S                  
REDMOND        CLEAR     51  40  65 SE3       29.90S                  
BEND           CLEAR     54  43  66 S5        29.90S                  
PRINEVILLE     CLEAR     46  39  76 CALM      29.91R                  
KLAMATH FALLS  CLEAR     48  43  82 CALM      29.94S                  
LAKEVIEW       CLEAR     48  36  63 N8        29.99R                  
HERMISTON      CLEAR     58  49  72 CALM      29.81R                  
PENDLETON      CLEAR     59  47  64 S5        29.83S                  
JOHN DAY       CLEAR     54  40  57 E8        29.92S                  
MEACHAM        CLEAR     40  37  89 CALM      29.91S                  
LA GRANDE      CLEAR     48  44  86 CALM      29.90R                  
BAKER CITY     CLEAR     47  45  93 CALM      29.91S                  
BURNS          CLEAR     47  34  60 NW8       29.94F                  
ROME             N/A     51  30  44 SE5       29.92R                  
ONTARIO        CLEAR     59  46  62 SW6       29.85R                  
$$